sat.trackr.live / text

‹ back to catalog

TANSAT

NORAD 41898 · 2016-081A

PAYLOAD ACTIVE UNKNOWN

§ Identity

Operator
Country
PRC
Launch date
2016-12-21
Launch site
JSC
Launch vehicle
Mass (kg)
RCS (m²)
1.42

External: N2YO · Heavens-Above · Gunter

§ Orbital elements

Epoch: 2026-09-15T23:42:42.734304Z

Period
98.63 min
Inclination
98.5417°
Eccentricity
0.0021310
Mean motion
14.60004183 rev/d
Perigee alt
678.1 km
Apogee alt
708.2 km
Semi-major
7,071.3 km
B*
5.3577e-5
RAAN
261.9561°
Arg perigee
31.5255°
Mean anomaly
328.7216°
Rev number
51,787

§ Raw data

TANSAT1 41898U 16081A   26258.98799461  .00000207  00000+0  53577-4 0  99912 41898  98.5417 261.9561 0021310  31.5255 328.7216 14.60004183517878

JSON: /api/v1/satellites/41898 · /tle

For live sub-satellite position, see the globe view (requires WebGL).

§ Visibility from observer

Set your observer location to see the next 7 days of passes ≥ 10°. The values pass through the URL so the page stays shareable.

No JS? Fill the form by hand. The geolocation button needs JavaScript.

§ Radio — SatNOGS DB

ModeDescriptionDownlinkUplink
FM Mode S 2.218 GHz

1 transmitter · refreshed weekly from db.satnogs.org